SAUDICOMSAT 1 (28369 NORAD) Tracking and Keplerian Element Data

This shows tracking and keplerian element data for the satellite.

Feedback or suggestion? Click here.




ElementValue
Catalog28369
NameSAUDICOMSAT 1
Epoch Orbit9166
Epoch Day34.91450385
Epoch Year2025
RAAN27.0951
Inclination98.5615
Eccentricity0.003373
Argument of Perigee108.6625
Mean Anonmoly251.8238
Mean Motion14.54747793
Decay Rate1.098E-05
L11 28369U 04025D 25034.91450385 .00001098 00000+0 26593-3 0 9993
L22 28369 98.5615 27.0951 0033730 108.6625 251.8238 14.54747793 91664



Live tracking and technical data element details for SAUDICOMSAT 1 (NORAD 28369). SAUDICOMSAT 1 can be tracked NOW for your location showing map with azimuth and elevation plus other details from your city location.







IsCatalogInMostPopularTable: catalog: 28369, numindb: 300
Update: records affected: 1



GetName: 28369 SAUDICOMSAT 1

Hit Count: updated at: Thu, 15 May 2025 09:08:24 GMT